Cross City, FL

10:29 PM EST on December 08, 2019 (GMT -0500)
Cross City

Weather History for KCTY - October, 2019

Change the Weather History Date:

Monday, October 21, 2019

  Actual Average Record
Temperature  
Mean Temperature 71 °F 69 °F  
Max Temperature 82 °F 82 °F 90 °F (2005)
Min Temperature 60 °F 56 °F 37 °F (2011)
Degree Days  
Heating Degree Days 0    
Month to date heating degree days 2  
Since 1 July heating degree days 2  
Cooling Degree Days 6    
Month to date cooling degree days 231  
Year to date cooling degree days 2988  
Growing Degree Days 20 (Base 50)    
Moisture  
Dew Point 69 °F    
Average Humidity 93    
Maximum Humidity 100    
Minimum Humidity 62    
Precipitation  
Precipitation 0.47 in 0.09 in 0.10 in (1999)
Month to date precipitation 2.42 2.52  
Year to date precipitation 49.89 42.35  
Sea Level Pressure  
Sea Level Pressure 29.97 in    
Wind  
Wind Speed 4 mph (ESE)    
Max Wind Speed 10 mph    
Max Gust Speed -    
Visibility 9 miles    
Events Fog , Rain , Thunderstorm    
T = Trace of Precipitation, MM = Missing Value Source: NWS Daily Summary

Daily Weather History Graph

Daily Weather History Graph

Search for Another Location

Airport or City:

Astronomy

Oct. 21, 2019 Rise Set
Actual Time 7:37 AM EDT 6:55 PM EDT
Civil Twilight 7:13 AM EDT 7:20 PM EDT
Nautical Twilight 6:45 AM EDT 7:47 PM EDT
Astronomical Twilight 6:18 AM EDT 8:15 PM EDT
Moon 12:21 AM EDT (10/21) 2:39 PM EDT (10/21)
Length of Visible Light 12h 06m
Length of Day
11h 18m
Waning Gibbous, 48% of the Moon is Illuminated
Oct 21
Waning Gibbous
Oct 27
New
Nov 4
First Quarter
Nov 12
Full
Nov 19
Last Quarter

Hourly Weather History & Observations

Time (EDT) Temp. Heat Index Dew Point Humidity Pressure Visibility Wind Dir Wind Speed Gust Speed Precip Events Conditions
12:15 AM 64.2 °F - 63.3 °F 97% 29.98 in 10.0 mi Calm Calm - N/A   Unknown
12:35 AM 63.7 °F - 63.0 °F 97% 29.98 in 10.0 mi Calm Calm - N/A   Unknown
12:55 AM 62.6 °F - 61.9 °F 97% 29.98 in 10.0 mi Calm Calm - N/A   Unknown
1:15 AM 63.0 °F - 62.2 °F 97% 29.98 in 10.0 mi Calm Calm - N/A   Unknown
1:35 AM 62.8 °F - 62.1 °F 97% 29.98 in 10.0 mi Calm Calm - N/A   Unknown
1:55 AM 62.8 °F - 62.1 °F 97% 29.98 in 10.0 mi Calm Calm - N/A   Unknown
2:15 AM 62.1 °F - 61.2 °F 97% 29.98 in 10.0 mi Calm Calm - N/A   Unknown
2:35 AM 61.5 °F - 60.6 °F 97% 29.97 in 10.0 mi Calm Calm - N/A   Unknown
2:55 AM 61.2 °F - 60.3 °F 97% 29.97 in 10.0 mi Calm Calm - N/A   Unknown
3:35 AM 61.0 °F - 60.1 °F 97% 29.96 in 10.0 mi Calm Calm - N/A   Unknown
3:55 AM 60.8 °F - 60.8 °F 100% 29.96 in 10.0 mi NNE 3.5 mph - N/A   Unknown
4:35 AM 61.5 °F - 61.0 °F 98% 29.95 in 7.0 mi NNE 3.5 mph - N/A   Mist
4:55 AM 62.8 °F - 62.4 °F 99% 29.96 in 10.0 mi NE 3.5 mph - N/A   Unknown
5:15 AM 63.7 °F - 63.3 °F 99% 29.96 in 10.0 mi Calm Calm - N/A   Unknown
5:35 AM 64.0 °F - 63.5 °F 98% 29.95 in 10.0 mi NE 4.6 mph - N/A   Unknown
5:55 AM 64.4 °F - 62.6 °F 94% 29.96 in 10.0 mi Calm Calm - N/A   Unknown
6:35 AM 63.7 °F - 63.0 °F 97% 29.96 in 10.0 mi East 3.5 mph - N/A   Unknown
6:55 AM 63.7 °F - 63.1 °F 98% 29.96 in 10.0 mi NE 3.5 mph - N/A   Unknown
7:15 AM 63.7 °F - 63.1 °F 98% 29.97 in 10.0 mi ENE 3.5 mph - N/A   Unknown
7:35 AM 63.5 °F - 63.0 °F 98% 29.97 in 10.0 mi ENE 3.5 mph - N/A   Unknown
7:55 AM 63.0 °F - 62.2 °F 97% 29.97 in 10.0 mi NNE 4.6 mph - N/A   Unknown
8:15 AM 64.0 °F - 63.5 °F 98% 29.98 in 10.0 mi Calm Calm - N/A   Unknown
8:35 AM 65.1 °F - 64.6 °F 98% 29.97 in 10.0 mi ENE 4.6 mph - N/A   Unknown
8:55 AM 65.8 °F - 65.3 °F 98% 29.98 in 10.0 mi East 5.8 mph - N/A   Unknown
9:15 AM 66.6 °F - 65.7 °F 97% 29.98 in 10.0 mi ENE 5.8 mph - N/A   Unknown
9:35 AM 68.2 °F - 67.1 °F 96% 29.98 in 10.0 mi East 4.6 mph - N/A   Unknown
9:55 AM 69.6 °F - 68.2 °F 95% 29.99 in 10.0 mi East 4.6 mph - N/A   Unknown
10:15 AM 71.6 °F - 69.3 °F 92% 29.99 in 10.0 mi East 5.8 mph - N/A   Unknown
10:35 AM 73.0 °F - 69.8 °F 90% 29.99 in 10.0 mi ESE 5.8 mph - N/A   Unknown
10:55 AM 74.5 °F - 69.8 °F 85% 29.99 in 10.0 mi SE 4.6 mph - N/A   Unknown
11:15 AM 76.3 °F - 70.0 °F 81% 29.99 in 10.0 mi SE 6.9 mph - N/A   Unknown
11:35 AM 77.5 °F - 69.1 °F 75% 29.98 in 10.0 mi ESE 8.1 mph - N/A   Unknown
11:55 AM 78.3 °F - 69.4 °F 74% 29.99 in 10.0 mi ESE 4.6 mph - N/A   Unknown
12:15 PM 78.6 °F - 69.6 °F 74% 29.99 in 10.0 mi ESE 5.8 mph - N/A   Unknown
12:35 PM 79.2 °F - 70.0 °F 73% 29.99 in 10.0 mi East 5.8 mph - N/A   Unknown
12:55 PM 78.8 °F - 69.8 °F 74% 30.00 in 10.0 mi East 4.6 mph - N/A   Unknown
1:15 PM 79.9 °F - 70.9 °F 74% 30.00 in 10.0 mi ESE 5.8 mph - N/A   Unknown
1:35 PM 81.3 °F 85.2 °F 70.7 °F 70% 29.99 in 10.0 mi ESE 4.6 mph - N/A   Unknown
1:55 PM 81.0 °F 84.6 °F 70.2 °F 70% 29.97 in 10.0 mi SSE 6.9 mph - N/A Thunderstorm Unknown
2:35 PM 80.6 °F 84.2 °F 70.9 °F 72% 29.96 in 10.0 mi ESE 5.8 mph - N/A   Unknown
2:55 PM 80.4 °F 84.1 °F 71.2 °F 73% 29.95 in - ESE 3.5 mph - N/A   Unknown
3:15 PM 79.9 °F - 72.3 °F 78% 29.96 in 7.0 mi SE 3.5 mph - N/A Rain Light Rain
3:35 PM 76.1 °F - 73.8 °F 92% 29.96 in 7.0 mi West 5.8 mph - 0.03 in Rain Light Rain
3:55 PM 75.7 °F - 73.9 °F 94% 29.96 in 10.0 mi NNW 4.6 mph - 0.03 in   Unknown
4:15 PM 74.8 °F - 73.9 °F 97% 29.95 in 0.5 mi ENE 3.5 mph - 0.28 in Fog , Rain Heavy Rain
4:35 PM 75.2 °F - 75.2 °F 100% 29.95 in 10.0 mi ENE 3.5 mph - 0.30 in   Unknown
4:55 PM 75.4 °F - 74.5 °F 97% 29.94 in 5.0 mi NE 3.5 mph - 0.31 in Rain Rain
5:15 PM 75.4 °F - 74.7 °F 98% 29.94 in 7.0 mi Calm Calm - 0.01 in Thunderstorm Unknown
5:35 PM 75.6 °F - 74.8 °F 98% 29.93 in 7.0 mi Calm Calm - 0.01 in Thunderstorm Unknown
5:55 PM 75.2 °F - 75.2 °F 100% 29.94 in 7.0 mi East 3.5 mph - 0.01 in Thunderstorm Unknown
6:15 PM 75.4 °F - 74.8 °F 98% 29.95 in 7.0 mi ESE 3.5 mph - N/A Rain , Thunderstorm Light Thunderstorms and Rain
6:35 PM 75.4 °F - 74.8 °F 98% 29.94 in 10.0 mi SSE 4.6 mph - N/A   Unknown
6:55 PM 75.2 °F - 74.7 °F 98% 29.95 in 10.0 mi SW 4.6 mph - N/A   Unknown
7:15 PM 75.0 °F - 74.5 °F 98% 29.95 in 10.0 mi SE 3.5 mph - N/A   Unknown
7:35 PM 74.7 °F - 74.1 °F 98% 29.95 in 7.0 mi Calm Calm - N/A   Unknown
7:55 PM 74.3 °F - 73.8 °F 98% 29.95 in 7.0 mi South 3.5 mph - N/A   Unknown
8:15 PM 74.1 °F - 73.8 °F 99% 29.95 in 10.0 mi Calm Calm - N/A   Unknown
8:35 PM 74.1 °F - 73.6 °F 98% 29.97 in 10.0 mi SSE 5.8 mph - N/A Rain Light Rain
8:55 PM 74.7 °F - 74.1 °F 98% 29.97 in 3.5 mi South 10.4 mph - 0.07 in Rain Heavy Rain
9:15 PM 74.8 °F - 74.3 °F 98% 29.97 in 10.0 mi South 6.9 mph - 0.01 in Rain Light Rain
9:35 PM 74.7 °F - 74.3 °F 99% 29.97 in 10.0 mi SSE 4.6 mph - 0.01 in   Unknown
9:55 PM 74.5 °F - 74.1 °F 99% 29.97 in 7.0 mi SSE 4.6 mph - 0.01 in   Unknown
10:15 PM 74.3 °F - 73.9 °F 99% 29.97 in 7.0 mi South 3.5 mph - N/A   Mist
10:35 PM 74.3 °F - 73.9 °F 99% 29.97 in 7.0 mi Calm Calm - N/A   Unknown
10:55 PM 74.3 °F - 73.9 °F 99% 29.97 in 2.5 mi SE 5.8 mph - 0.02 in Rain Heavy Rain
11:15 PM 74.5 °F - 73.9 °F 98% 29.98 in 5.0 mi SSE 4.6 mph - 0.01 in Rain Light Rain
11:35 PM 74.5 °F - 73.9 °F 98% 29.98 in 10.0 mi South 3.5 mph - 0.01 in   Unknown
11:55 PM 74.3 °F - 73.8 °F 98% 29.98 in 7.0 mi SSE 5.8 mph - 0.01 in   Unknown